FENGYUN 1C DEB

Satellite information

Favourite Embed

Satellite Type and Status

DEBRISIN ORBIT

Key statistics

Satellite FENGYUN 1C DEB at a glance.

Uptime

9715

Days in orbit

Revolutions

≈ 14.2

Per day

Orbit

SSO

Sun Synchronous Orbit

Inclination

98.6

Latest

Satellite identification and parameters

Extended collection of information and parameters for FENGYUN 1C DEB.

Object identification

Identified? True

Debris? True

Object name: FENGYUN 1C DEB

International designator: 1999-025CTU

Object number (NORAD): 32174

Object ID (CCSDS): 32174

Country: PEOPLES REPUBLIC OF CHINA (PRC)

Current information (Y/N): Y

RCS size: SMALL

Orbital parameters

Period: 101.558 minutes

Inclination: 98.6011 deg

SMA: 7210.563 km

Apoapsis: 940.558 km

Periapsis: 724.299 km

RAAN: 44.6876 deg

Eccentricy: 0.01499603

Argument of periapsis: 258.4641 deg

Mean anomaly: 99.9665 deg

Mean motion: 14.17910967 rev/day

Mean motion (dot): 0.0000119 rev/day2

B* drag term: 0.00054004697 1/REarth

Two-line elements (TLE)

Creation date: Dec. 8, 2025, 6:20 p.m.

Reference frame: TEME

Reference center: EARTH

Epoch: Dec. 8, 2025, 9:45 a.m. UTC

TLE line 0: 0 FENGYUN 1C DEB

TLE line 1: 1 32174U 99025CTU 25342.40692101 .00001190 00000-0 54005-3 0 9999

TLE line 2: 2 32174 98.6011 44.6876 0149960 258.4641 99.9665 14.17910967640445

Live tracking on map

Real-time ground track for satellite FENGYUN 1C DEB.

In-orbit conjunctions

A list of the most updated potential collisions computed for object FENGYUN 1C DEB.

Target Orbit TCA Probability of collision Miss distance Type
TIROS 5 LEO 2025-12-09 04:11:30 0.0002277591 123.0 (m) PAYLOAD
CZ-6A DEB SSO 2025-06-13 01:22:57 0.0004760287 42.0 (m) DEBRIS
CZ-6A DEB LEO 2025-03-04 16:29:15 0.000252066 234.0 (m) DEBRIS
SL-8 DEB * LEO 2024-08-04 10:16:47 0.0001229672 397.0 (m) DEBRIS

Associated space launch

Chinese polar orbiting meteorological satellite

FENGYUN 1C DEB was lifted into orbit during the mission ‘Long March 4B | Feng Yun 1C’, on board a Long March 4B space rocket.

The launch took place on May 10, 1999, 1:33 a.m. from Launch Complex 7.

For more information about the launch, click the button.

Launch to space Long March 4B | Feng Yun 1C
Long March 4B | Feng Yun 1C

Agency: N/A

Status: Launch Successful

Launch date: May 10, 1999, 1:33 a.m. UTC

Rocket: Long March 4B

Launch pad: Launch Complex 7

Location: Taiyuan Satellite Launch Center, People's Republic of China

...

Latest news about this satellite

There are no fresh news available about this satellite. Check back as we update our databases every day.


Newsletter sign-up

Weekly statistics, charts and insights to help you stay on top of the space industry.